Location: Berkeley
(37.8716°N, 122.2727°W)
Time: 07:43:31
(UTC-07:00)

BlueWalker 3 - Pass Details

Date: 19 May 2026
Orbit: 447 x 457 km, 53.2° (Epoch: 5 June)

Event Time Altitude Azimuth Distance (km) Brightness Sun altitude
Exits shadow 01:11:45 10° 336° (NNW) 1,553 5.1 -32.3°
Maximum altitude 01:12:06 10° 341° (NNW) 1,546 5.2 -32.3°
Drops below altitude 10° 01:12:47 10° 353° (N) 1,573 5.3 -32.3°
Sets 01:16:40 0° 36° (NE) 2,447 6.2 -32.3°
